period_start,C,m1,H,J0,J1,J2,J3,J4,J5,JA,JB,JC,JD,JJ,JK,JN,#
2018-02-22 00:02:51,0.30,3.38,0.00,21.44,24.85,28.18,14.23,51.51,1025.77,2035.00,2277.79,2326.93,2574.06,600.02,604.63,37.82,0000 0000 0000 0000 000000
2018-02-22 00:07:53,0.25,3.40,0.00,21.43,24.85,28.18,14.23,51.38,1025.88,2035.00,2273.73,2324.39,2571.07,600.59,605.38,37.87,0000 0000 0000 0000 000000
2018-02-22 00:12:54,0.08,3.41,0.00,21.44,24.86,28.19,14.21,51.43,1025.89,2034.99,2272.32,2323.37,2569.92,600.03,604.78,37.92,0000 0000 0000 0000 000000
2018-02-22 00:17:55,0.09,3.41,0.00,21.45,24.87,28.19,14.25,51.42,1025.89,2034.99,2270.91,2322.67,2569.06,600.22,604.86,37.97,0000 0000 0000 0000 000000
2018-02-22 00:22:56,0.05,3.41,0.00,21.47,24.87,28.20,14.17,51.35,1025.89,2034.99,2270.00,2322.03,2568.51,599.96,604.56,38.02,0000 0000 0000 0000 000000
2018-02-22 00:27:57,0.07,3.42,0.00,21.48,24.87,28.21,14.15,51.34,1025.89,2034.99,2269.03,2321.62,2567.71,599.98,604.56,38.07,0000 0000 0000 0000 000000
2018-02-22 00:32:59,0.18,3.42,0.00,21.50,24.87,28.20,14.15,51.33,1025.89,2034.98,2266.76,2320.12,2566.10,599.90,604.53,38.12,0000 0000 0000 0000 000000
2018-02-22 00:38:00,0.20,3.43,0.00,21.51,24.87,28.22,14.17,51.39,1025.89,2034.98,2263.77,2318.32,2564.01,599.87,604.34,38.17,0000 0000 0000 0000 000000
2018-02-22 00:43:01,0.19,3.44,0.00,21.52,24.89,28.21,14.24,51.30,1025.89,2034.99,2260.95,2316.66,2562.12,600.36,604.85,38.22,0000 0000 0000 0000 000000
2018-02-22 00:48:02,0.18,3.45,0.00,21.54,24.90,28.22,14.15,51.31,1025.89,2034.97,2258.21,2314.93,2560.24,599.89,604.30,38.27,0000 0000 0000 0000 000000
2018-02-22 00:53:04,0.17,3.46,0.00,21.56,24.90,28.24,14.20,51.37,1025.90,2034.93,2255.64,2313.39,2558.70,599.65,604.19,38.32,0000 0000 0000 0000 000000
2018-02-22 00:58:05,0.12,3.47,0.00,21.59,24.90,28.25,14.13,51.38,1025.92,2034.93,2253.50,2312.10,2557.28,599.54,603.90,38.38,0000 0000 0000 0000 000000
2018-02-22 01:03:06,0.19,3.48,0.00,21.59,24.91,28.24,14.23,51.48,1026.10,2034.85,2251.11,2310.60,2555.41,599.76,604.30,38.43,0000 0000 0000 0000 000000
2018-02-22 01:08:07,0.23,3.49,0.00,21.62,24.92,28.24,14.22,51.32,1026.26,2034.67,2247.30,2308.40,2552.95,599.79,604.34,38.48,0000 0000 0000 0000 000000
2018-02-22 01:13:08,0.25,3.50,0.00,21.64,24.92,28.25,14.18,51.30,1026.36,2034.62,2243.51,2306.31,2550.76,599.99,604.42,38.53,0000 0000 0000 0000 000000
2018-02-22 01:18:10,0.25,3.52,0.00,21.67,24.94,28.28,14.18,51.39,1026.38,2034.70,2239.96,2304.33,2548.60,599.99,604.47,38.58,0000 0000 0000 0000 000000
2018-02-22 01:23:11,0.19,3.53,0.00,21.68,24.95,28.29,14.21,51.36,1026.38,2034.66,2236.89,2302.51,2546.51,599.77,604.23,38.63,0000 0000 0000 0000 000000
2018-02-22 01:28:12,0.19,3.54,0.00,21.69,24.97,28.30,14.22,51.44,1026.38,2034.38,2233.59,2300.67,2544.54,599.89,604.32,38.68,0000 0000 0000 0000 000000
2018-02-22 01:33:13,0.20,3.55,0.00,21.70,24.98,28.33,14.21,51.41,1026.40,2034.31,2230.42,2298.91,2542.54,599.98,604.39,38.73,0000 0000 0000 0000 000000
2018-02-22 01:38:14,0.17,3.56,0.00,21.74,25.00,28.34,14.18,51.33,1026.43,2034.20,2227.60,2297.22,2540.61,600.08,604.43,38.78,0000 0000 0000 0000 000000
2018-02-22 01:43:16,0.17,3.56,0.00,21.76,25.02,28.37,14.23,51.42,1026.51,2034.07,2225.22,2295.67,2538.79,600.34,604.65,38.83,0000 0000 0000 0000 000000
2018-02-22 01:48:17,0.16,3.57,0.00,21.77,25.04,28.40,14.23,51.48,1026.70,2034.02,2222.82,2294.20,2537.13,599.88,604.42,38.88,0000 0000 0000 0000 000000
2018-02-22 01:53:18,0.17,3.58,0.00,21.81,25.06,28.41,14.22,51.47,1026.86,2034.00,2220.39,2292.75,2535.55,600.15,604.60,38.93,0000 0000 0000 0000 000000
2018-02-22 01:58:19,0.16,3.59,0.00,21.84,25.08,28.42,14.21,51.62,1026.87,2034.00,2218.00,2291.43,2533.98,600.08,604.46,38.98,0000 0000 0000 0000 000000
2018-02-22 02:03:20,0.14,3.60,0.00,21.87,25.10,28.44,14.18,51.52,1026.87,2034.00,2215.96,2290.06,2532.45,599.94,604.33,39.03,0000 0000 0000 0000 000000
2018-02-22 02:08:21,0.15,3.61,0.00,21.90,25.12,28.46,14.19,51.60,1026.88,2033.99,2214.01,2288.77,2530.86,600.08,604.38,39.08,0000 0000 0000 0000 000000
2018-02-22 02:13:22,0.16,3.61,0.00,21.91,25.15,28.47,14.25,51.56,1026.90,2033.98,2211.58,2287.47,2529.41,600.36,604.68,39.13,0000 0000 0000 0000 000000
2018-02-22 02:18:24,0.19,3.62,0.00,21.94,25.17,28.47,14.21,51.60,1026.93,2033.98,2208.70,2285.83,2527.76,600.11,604.38,39.18,0000 0000 0000 0000 000000
2018-02-22 02:23:25,0.15,3.63,0.00,21.97,25.18,28.49,14.14,51.58,1027.08,2033.98,2206.49,2284.52,2526.09,599.83,604.06,39.23,0000 0000 0000 0000 000000
2018-02-22 02:28:26,0.14,3.64,0.00,21.99,25.20,28.51,14.21,51.50,1027.21,2033.95,2204.38,2283.21,2524.58,600.14,604.45,39.29,0000 0000 0000 0000 000000
2018-02-22 02:33:27,0.10,3.65,0.00,22.02,25.22,28.52,14.19,51.59,1027.33,2033.79,2202.48,2281.96,2523.13,599.80,604.11,39.34,0000 0000 0000 0000 000000
2018-02-22 02:38:28,0.08,3.65,0.00,22.05,25.24,28.54,14.15,51.55,1027.36,2033.31,2200.84,2280.82,2521.68,599.52,603.82,39.39,0000 0000 0000 0000 000000
2018-02-22 02:43:30,0.12,3.65,0.00,22.09,25.26,28.54,14.21,51.58,1027.36,2033.03,2199.09,2279.73,2520.41,600.18,604.33,39.44,0000 0000 0000 0000 000000
2018-02-22 02:48:31,0.11,3.66,0.00,22.13,25.27,28.55,14.20,51.54,1027.36,2033.01,2197.38,2278.68,2519.16,599.78,603.89,39.49,0000 0000 0000 0000 000000
2018-02-22 02:53:32,0.14,3.67,0.00,22.14,25.30,28.58,14.25,51.63,1027.37,2033.00,2195.62,2277.57,2517.85,600.15,604.21,39.54,0000 0000 0000 0000 000000
2018-02-22 02:58:33,0.14,3.67,0.00,22.15,25.31,28.59,14.15,51.51,1027.37,2033.00,2193.67,2276.41,2516.50,600.20,604.16,39.59,0000 0000 0000 0000 000000
2018-02-22 03:03:34,0.12,3.68,0.00,22.19,25.33,28.61,14.16,51.50,1027.37,2033.00,2191.80,2275.31,2515.22,599.99,603.99,39.64,0000 0000 0000 0000 000000
2018-02-22 03:08:36,0.13,3.69,0.00,22.21,25.35,28.62,14.20,51.34,1027.38,2032.98,2190.00,2274.10,2513.82,600.05,604.01,39.69,0000 0000 0000 0000 000000
2018-02-22 03:13:37,0.14,3.69,0.00,22.24,25.36,28.64,14.18,51.48,1027.41,2032.98,2188.09,2272.95,2512.56,599.84,603.71,39.74,0000 0000 0000 0000 000000
2018-02-22 03:18:38,0.18,3.70,0.00,22.27,25.38,28.65,14.22,51.53,1027.58,2032.95,2185.52,2271.58,2511.08,600.13,604.08,39.79,0000 0000 0000 0000 000000
2018-02-22 03:23:40,0.23,3.71,0.00,22.29,25.40,28.67,14.13,51.49,1027.78,2032.91,2182.03,2269.63,2509.00,599.92,603.94,39.84,0000 0000 0000 0000 000000
2018-02-22 03:28:41,0.22,3.73,0.00,22.30,25.42,28.69,14.14,51.58,1027.85,2032.91,2178.91,2267.81,2507.01,599.56,603.65,39.89,0000 0000 0000 0000 000000
2018-02-22 03:33:42,0.21,3.74,0.00,22.33,25.44,28.71,14.20,51.66,1027.85,2032.79,2175.68,2265.94,2505.00,599.96,603.97,39.94,0000 0000 0000 0000 000000
2018-02-22 03:38:44,0.19,3.75,0.00,22.37,25.46,28.72,14.16,51.58,1027.85,2032.64,2172.56,2264.11,2502.92,599.80,603.80,39.99,0000 0000 0000 0000 000000
2018-02-22 03:43:45,0.15,3.75,0.00,22.38,25.48,28.75,14.21,51.64,1027.86,2032.13,2169.86,2262.37,2500.85,599.86,603.72,40.04,0000 0000 0000 0000 000000
2018-02-22 03:48:47,0.20,3.76,0.00,22.38,25.50,28.77,14.16,51.64,1027.89,2032.04,2166.90,2260.66,2498.99,599.72,603.69,40.09,0000 0000 0000 0000 000000
2018-02-22 03:53:48,0.16,3.77,0.00,22.41,25.52,28.79,14.14,51.61,1027.96,2032.02,2164.47,2259.11,2497.26,599.98,603.85,40.14,0000 0000 0000 0000 000000
2018-02-22 03:58:49,0.18,3.78,0.00,22.45,25.55,28.80,14.23,51.66,1028.20,2032.00,2162.35,2257.67,2495.58,600.10,604.05,40.19,0000 0000 0000 0000 000000
2018-02-22 04:03:51,0.17,3.79,0.00,22.47,25.57,28.83,14.16,51.56,1028.17,2032.00,2159.90,2256.26,2493.96,599.95,603.83,40.25,0000 0000 0000 0000 000000
2018-02-22 04:08:52,0.18,3.80,0.00,22.52,25.60,28.85,14.17,51.61,1028.16,2032.00,2157.33,2254.71,2492.32,600.09,603.82,40.30,0000 0000 0000 0000 000000
2018-02-22 04:13:53,0.18,3.81,0.00,22.55,25.62,28.87,14.14,51.58,1028.14,2032.00,2154.90,2253.19,2490.74,599.91,603.74,40.35,0000 0000 0000 0000 000000
2018-02-22 04:18:54,0.19,3.82,0.00,22.57,25.64,28.90,14.20,51.66,1028.16,2032.00,2152.21,2251.66,2489.07,600.16,603.85,40.40,0000 0000 0000 0000 000000
2018-02-22 04:23:56,0.17,3.83,0.00,22.57,25.67,28.93,14.19,51.64,1028.30,2031.99,2149.73,2250.21,2487.40,600.23,603.99,40.45,0000 0000 0000 0000 000000
2018-02-22 04:28:57,0.16,3.84,0.00,22.59,25.70,28.95,14.24,51.60,1028.31,2031.96,2147.59,2248.73,2485.70,600.07,603.88,40.50,0000 0000 0000 0000 000000
2018-02-22 04:33:59,0.11,3.84,0.00,22.63,25.72,28.98,14.23,51.55,1028.33,2031.71,2145.60,2247.41,2484.07,600.26,603.91,40.55,0000 0000 0000 0000 000000
2018-02-22 04:39:00,0.10,3.85,0.00,22.65,25.75,29.00,14.19,51.57,1028.33,2031.21,2143.66,2246.09,2482.48,600.03,603.62,40.60,0000 0000 0000 0000 000000
2018-02-22 04:44:01,0.17,3.86,0.00,22.68,25.78,29.04,14.23,51.55,1028.33,2031.01,2141.45,2244.62,2480.75,600.07,603.61,40.65,0000 0000 0000 0000 000000
2018-02-22 04:49:02,0.16,3.87,0.00,22.71,25.81,29.08,14.21,51.73,1028.33,2030.99,2139.19,2243.20,2479.10,600.06,603.64,40.70,0000 0000 0000 0000 000000
2018-02-22 04:54:03,0.17,3.87,0.00,22.74,25.84,29.11,14.19,51.63,1028.35,2030.99,2136.87,2241.73,2477.50,599.57,603.10,40.75,0000 0000 0000 0000 000000
2018-02-22 04:59:04,0.14,3.88,0.00,22.78,25.87,29.13,14.16,51.58,1028.48,2030.94,2134.78,2240.44,2476.04,600.12,603.57,40.80,0000 0000 0000 0000 000000
2018-02-22 05:04:06,0.08,3.89,0.00,22.80,25.90,29.16,14.17,51.56,1028.67,2030.46,2132.67,2239.25,2474.53,600.26,603.78,40.85,0000 0000 0000 0000 000000
2018-02-22 05:09:07,0.13,3.90,0.00,22.82,25.92,29.19,14.13,51.57,1028.78,2030.15,2130.40,2237.98,2473.05,599.95,603.56,40.90,0000 0000 0000 0000 000000
2018-02-22 05:14:08,0.14,3.90,0.00,22.85,25.95,29.22,14.19,51.47,1028.82,2030.03,2128.52,2236.78,2471.60,600.18,603.66,40.95,0000 0000 0000 0000 000000
2018-02-22 05:19:10,0.16,3.91,0.00,22.88,25.98,29.25,14.13,51.50,1028.82,2030.00,2126.50,2235.49,2470.00,599.77,603.18,41.00,0000 0000 0000 0000 000000
2018-02-22 05:24:11,0.16,3.92,0.00,22.90,26.01,29.28,14.20,51.55,1028.83,2030.00,2124.42,2234.10,2468.44,599.98,603.42,41.05,0000 0000 0000 0000 000000
2018-02-22 05:29:13,0.18,3.93,0.00,22.91,26.03,29.31,14.18,51.43,1028.84,2029.98,2122.20,2232.66,2466.75,600.15,603.52,41.10,0000 0000 0000 0000 000000
2018-02-22 05:34:14,0.18,3.94,0.00,22.94,26.06,29.33,14.14,51.46,1028.86,2029.95,2119.71,2231.14,2464.99,599.89,603.24,41.16,0000 0000 0000 0000 000000
2018-02-22 05:39:16,0.20,3.95,0.00,22.95,26.08,29.36,14.14,51.32,1028.94,2029.86,2116.86,2229.40,2463.14,599.98,603.34,41.21,0000 0000 0000 0000 000000
2018-02-22 05:44:17,0.19,3.96,0.00,22.95,26.10,29.37,14.16,51.35,1029.18,2029.54,2113.73,2227.52,2461.08,599.95,603.64,41.26,0000 0000 0000 0000 000000
2018-02-22 05:49:18,0.17,3.97,0.00,22.96,26.12,29.39,14.15,51.37,1029.29,2029.54,2111.21,2225.91,2459.42,600.07,603.60,41.31,0000 0000 0000 0000 000000
2018-02-22 05:54:19,0.15,3.97,0.00,22.98,26.15,29.41,14.09,51.42,1029.31,2029.24,2108.93,2224.49,2457.67,600.19,603.70,41.36,0000 0000 0000 0000 000000
2018-02-22 05:59:21,0.16,3.98,0.00,23.00,26.18,29.43,14.09,51.37,1029.31,2029.07,2106.76,2222.97,2455.96,599.83,603.33,41.41,0000 0000 0000 0000 000000
2018-02-22 06:04:22,0.17,3.99,0.00,23.00,26.21,29.46,14.18,51.41,1029.31,2029.00,2104.65,2221.52,2454.20,600.03,603.47,41.46,0000 0000 0000 0000 000000
2018-02-22 06:09:23,0.18,4.00,0.00,23.03,26.22,29.48,14.19,51.31,1029.31,2029.00,2102.39,2219.99,2452.44,599.91,603.29,41.51,0000 0000 0000 0000 000000
2018-02-22 06:14:24,0.19,4.01,0.00,23.05,26.25,29.50,14.12,51.31,1029.32,2028.98,2100.01,2218.48,2450.68,599.84,603.22,41.56,0000 0000 0000 0000 000000
2018-02-22 06:19:26,0.18,4.02,0.00,23.06,26.27,29.51,14.25,51.33,1029.33,2028.98,2097.64,2216.91,2448.96,600.16,603.50,41.61,0000 0000 0000 0000 000000
2018-02-22 06:24:27,0.18,4.03,0.00,23.05,26.29,29.55,14.11,51.19,1029.36,2028.94,2095.31,2215.48,2447.25,600.01,603.32,41.66,0000 0000 0000 0000 000000
2018-02-22 06:29:28,0.15,4.04,0.00,23.06,26.31,29.57,14.16,51.24,1029.53,2028.68,2092.88,2213.91,2445.49,600.18,603.66,41.71,0000 0000 0000 0000 000000
2018-02-22 06:34:30,0.14,4.04,0.00,23.08,26.33,29.59,14.18,51.17,1029.72,2028.30,2090.52,2212.38,2443.66,599.74,603.25,41.76,0000 0000 0000 0000 000000
2018-02-22 06:39:31,0.18,4.05,0.00,23.11,26.35,29.61,14.12,50.98,1029.79,2028.03,2088.30,2210.73,2441.70,599.88,603.41,41.81,0000 0000 0000 0000 000000
2018-02-22 06:44:32,0.17,4.06,0.00,23.13,26.37,29.62,14.17,51.07,1029.80,2028.00,2085.97,2209.28,2439.99,600.08,603.53,41.86,0000 0000 0000 0000 000000
2018-02-22 06:49:34,0.20,4.07,0.00,23.13,26.38,29.64,14.21,51.10,1029.81,2028.00,2083.43,2207.66,2438.17,600.08,603.51,41.91,0000 0000 0000 0000 000000
2018-02-22 06:54:35,0.18,4.08,0.00,23.14,26.40,29.65,14.19,51.09,1029.81,2028.00,2081.04,2206.13,2436.45,599.93,603.45,41.96,0000 0000 0000 0000 000000
2018-02-22 06:59:36,0.19,4.09,0.00,23.13,26.40,29.68,14.17,50.99,1029.87,2027.97,2078.60,2204.55,2434.62,599.93,603.42,42.02,0000 0000 0000 0000 000000
2018-02-22 07:04:37,0.17,4.10,0.00,23.14,26.42,29.70,14.10,50.91,1030.15,2027.92,2076.19,2202.99,2432.84,599.90,603.59,42.07,0000 0000 0000 0000 000000
2018-02-22 07:09:39,0.18,4.11,0.00,23.15,26.42,29.70,14.17,50.99,1030.27,2027.82,2073.65,2201.49,2431.25,600.02,603.74,42.12,0000 0000 0000 0000 000000
2018-02-22 07:14:40,0.20,4.12,0.00,23.18,26.44,29.73,14.19,51.06,1030.29,2027.44,2070.66,2199.66,2429.29,600.24,603.86,42.17,0000 0000 0000 0000 000000
2018-02-22 07:19:42,0.23,4.13,0.00,23.17,26.45,29.74,14.22,51.02,1030.29,2027.24,2067.49,2197.73,2427.17,600.16,603.82,42.22,0000 0000 0000 0000 000000
2018-02-22 07:24:43,0.22,4.14,0.00,23.17,26.45,29.75,14.19,51.08,1030.31,2027.12,2064.49,2195.82,2424.97,600.24,604.01,42.27,0000 0000 0000 0000 000000
2018-02-22 07:29:44,0.25,4.15,0.00,23.17,26.47,29.77,14.21,51.10,1030.35,2027.04,2061.30,2193.81,2422.68,599.76,603.44,42.32,0000 0000 0000 0000 000000
2018-02-22 07:34:46,0.25,4.17,0.00,23.18,26.47,29.78,14.11,51.08,1030.45,2027.01,2058.05,2191.80,2420.43,599.83,603.60,42.37,0000 0000 0000 0000 000000
2018-02-22 07:39:47,0.25,4.18,0.00,23.17,26.47,29.80,14.22,50.91,1030.69,2027.00,2054.78,2189.76,2418.20,600.15,604.09,42.42,0000 0000 0000 0000 000000
2018-02-22 07:44:48,0.27,4.19,0.00,23.17,26.49,29.80,14.15,51.04,1030.76,2027.00,2051.44,2187.71,2415.87,599.98,603.87,42.47,0000 0000 0000 0000 000000
2018-02-22 07:49:49,0.25,4.21,0.00,23.18,26.50,29.81,14.12,50.96,1030.78,2027.00,2048.27,2185.69,2413.48,600.07,604.03,42.52,0000 0000 0000 0000 000000
2018-02-22 07:54:51,0.26,4.22,0.00,23.19,26.50,29.81,14.13,50.88,1030.78,2027.00,2045.17,2183.61,2411.21,599.69,603.63,42.57,0000 0000 0000 0000 000000
2018-02-22 07:59:52,0.28,4.23,0.00,23.19,26.50,29.81,14.23,50.92,1030.78,2027.00,2041.60,2181.40,2408.79,600.23,604.18,42.62,0000 0000 0000 0000 000000
2018-02-22 08:04:53,0.28,4.25,0.00,23.19,26.52,29.82,14.22,50.97,1030.78,2027.00,2038.04,2179.23,2406.34,599.89,603.87,42.67,0000 0000 0000 0000 000000
2018-02-22 08:09:55,0.24,4.26,0.00,23.20,26.52,29.83,14.18,50.92,1030.78,2026.98,2035.05,2177.25,2404.01,600.13,604.21,42.72,0000 0000 0000 0000 000000
2018-02-22 08:14:56,0.26,4.27,0.00,23.20,26.52,29.84,14.25,51.02,1030.78,2026.98,2031.82,2175.23,2401.73,600.21,604.11,42.77,0000 0000 0000 0000 000000
2018-02-22 08:19:57,0.25,4.29,0.00,23.18,26.52,29.84,14.16,50.98,1030.78,2026.97,2028.50,2173.29,2399.53,599.79,603.72,42.82,0000 0000 0000 0000 000000
2018-02-22 08:24:58,0.25,4.30,0.00,23.15,26.53,29.85,14.24,51.11,1030.78,2026.97,2025.35,2171.35,2397.32,600.32,604.30,42.87,0000 0000 0000 0000 000000
2018-02-22 08:30:00,0.27,4.31,0.00,23.14,26.54,29.86,14.24,51.09,1030.79,2026.98,2022.17,2169.34,2395.11,599.84,603.89,42.92,0000 0000 0000 0000 000000
2018-02-22 08:35:01,0.25,4.33,0.00,23.15,26.55,29.86,14.15,51.04,1030.80,2026.97,2018.89,2167.31,2392.85,600.10,604.14,42.98,0000 0000 0000 0000 000000
2018-02-22 08:40:02,0.26,4.34,0.00,23.15,26.55,29.87,14.20,51.05,1030.81,2026.97,2015.70,2165.34,2390.64,600.23,604.18,43.03,0000 0000 0000 0000 000000
2018-02-22 08:45:04,0.26,4.35,0.00,23.14,26.55,29.86,14.10,51.13,1030.83,2026.95,2012.40,2163.28,2388.30,599.84,604.00,43.08,0000 0000 0000 0000 000000
2018-02-22 08:50:05,0.26,4.37,0.00,23.13,26.55,29.87,14.17,51.09,1030.88,2026.93,2009.08,2161.22,2386.05,599.92,604.03,43.13,0000 0000 0000 0000 000000
2018-02-22 08:55:06,0.26,4.38,0.00,23.11,26.56,29.87,14.17,51.08,1030.87,2026.92,2005.89,2159.23,2383.79,599.87,604.04,43.18,0000 0000 0000 0000 000000
2018-02-22 09:00:08,0.21,4.39,0.00,23.10,26.57,29.89,14.21,51.00,1031.01,2026.70,2002.91,2157.21,2381.42,600.11,604.29,43.23,0000 0000 0000 0000 000000
2018-02-22 09:05:09,0.23,4.40,0.00,23.09,26.57,29.87,14.19,51.04,1031.17,2026.38,1999.85,2155.24,2379.18,600.14,604.51,43.28,0000 0000 0000 0000 000000
2018-02-22 09:10:10,0.25,4.42,0.00,23.07,26.57,29.88,14.19,50.94,1031.25,2026.27,1996.62,2153.27,2377.07,600.07,604.54,43.33,0000 0000 0000 0000 000000
2018-02-22 09:15:11,0.24,4.43,0.00,23.07,26.57,29.88,14.20,50.99,1031.25,2026.25,1993.57,2151.37,2374.86,600.27,604.68,43.38,0000 0000 0000 0000 000000
2018-02-22 09:20:13,0.25,4.44,0.00,23.08,26.57,29.88,14.24,51.01,1031.26,2026.23,1990.62,2149.48,2372.72,600.00,604.48,43.43,0000 0000 0000 0000 000000
2018-02-22 09:25:14,0.25,4.46,0.00,23.05,26.57,29.89,14.20,51.06,1031.26,2026.16,1987.38,2147.49,2370.49,599.75,604.31,43.48,0000 0000 0000 0000 000000
2018-02-22 09:30:16,0.26,4.47,0.00,23.03,26.57,29.87,14.18,51.07,1031.27,2026.09,1984.06,2145.41,2368.26,600.06,604.61,43.53,0000 0000 0000 0000 000000
2018-02-22 09:35:17,0.20,4.48,0.00,23.03,26.57,29.87,14.20,51.04,1031.28,2026.09,1981.41,2143.72,2366.51,600.04,604.62,43.58,0000 0000 0000 0000 000000
2018-02-22 09:40:19,0.16,4.49,0.00,23.02,26.57,29.87,14.15,51.02,1031.32,2026.14,1979.44,2142.50,2365.18,599.75,604.45,43.63,0000 0000 0000 0000 000000
2018-02-22 09:45:20,0.14,4.50,0.00,23.00,26.57,29.85,14.19,51.04,1031.45,2026.13,1977.54,2141.40,2363.93,599.84,604.45,43.68,0000 0000 0000 0000 000000
2018-02-22 09:50:22,0.15,4.50,0.00,22.99,26.57,29.85,14.23,51.12,1031.57,2026.15,1975.73,2140.36,2362.76,599.97,604.73,43.73,0000 0000 0000 0000 000000
2018-02-22 09:55:23,0.32,4.52,0.00,23.00,26.57,29.85,14.25,51.12,1031.71,2026.15,1972.53,2138.26,2360.38,600.03,605.18,43.78,0000 0000 0000 0000 000000
2018-02-22 10:00:24,0.23,4.53,0.00,22.97,26.56,29.84,14.21,51.04,1031.75,2026.16,1969.23,2136.31,2358.18,599.98,604.91,43.84,0000 0000 0000 0000 000000
2018-02-22 10:05:25,0.24,4.54,0.00,22.95,26.55,29.84,14.22,51.08,1031.72,2026.13,1966.37,2134.55,2356.20,599.64,604.61,43.89,0000 0000 0000 0000 000000
2018-02-22 10:10:26,0.26,4.56,0.00,22.93,26.55,29.84,14.21,51.08,1031.72,2026.09,1963.22,2132.57,2353.99,599.81,604.81,43.94,0000 0000 0000 0000 000000
2018-02-22 10:15:27,0.35,4.57,0.00,22.92,26.55,29.83,14.18,51.14,1031.75,2026.08,1959.26,2130.24,2351.40,599.77,604.70,43.99,0000 0000 0000 0000 000000
2018-02-22 10:20:28,0.37,4.59,0.00,22.92,26.55,29.83,14.18,51.13,1031.76,2026.06,1954.56,2127.50,2348.36,599.98,605.14,44.04,0000 0000 0000 0000 000000
2018-02-22 10:25:30,0.40,4.61,0.00,22.91,26.54,29.83,14.25,51.17,1031.76,2026.10,1949.85,2124.59,2345.15,600.01,605.20,44.09,0000 0000 0000 0000 000000
2018-02-22 10:30:31,0.45,4.63,0.00,22.90,26.53,29.81,14.19,51.17,1031.76,2026.13,1944.75,2121.45,2341.52,600.07,605.19,44.14,0000 0000 0000 0000 000000
2018-02-22 10:35:32,0.45,4.66,0.00,22.90,26.52,29.80,14.18,51.23,1031.77,2026.11,1939.31,2118.12,2337.83,599.60,604.76,44.19,0000 0000 0000 0000 000000
2018-02-22 10:40:34,0.45,4.68,0.00,22.89,26.52,29.79,14.26,51.14,1031.81,2026.10,1933.85,2114.84,2334.13,599.95,605.18,44.24,0000 0000 0000 0000 000000
2018-02-22 10:45:35,0.37,4.70,0.00,22.89,26.52,29.78,14.29,51.19,1031.83,2026.24,1929.42,2112.22,2331.29,599.98,605.19,44.29,0000 0000 0000 0000 000000
2018-02-22 10:50:37,0.24,4.71,0.00,22.87,26.50,29.76,14.15,51.07,1031.82,2026.19,1925.89,2110.33,2329.03,599.87,605.11,44.34,0000 0000 0000 0000 000000
2018-02-22 10:55:38,0.30,4.73,0.00,22.85,26.50,29.75,14.25,51.17,1031.86,2026.33,1922.51,2108.36,2326.81,600.43,605.69,44.39,0000 0000 0000 0000 000000
2018-02-22 11:00:39,0.27,4.74,0.00,22.84,26.50,29.76,14.24,51.23,1032.00,2026.49,1919.54,2106.57,2324.78,600.04,605.45,44.44,0000 0000 0000 0000 000000
2018-02-22 11:05:41,0.30,4.76,0.00,22.83,26.49,29.75,14.25,51.24,1032.03,2026.65,1916.24,2104.51,2322.42,600.03,605.48,44.49,0000 0000 0000 0000 000000
2018-02-22 11:10:42,0.28,4.77,0.00,22.80,26.47,29.73,14.18,51.18,1032.09,2026.82,1913.18,2102.62,2320.32,600.10,605.45,44.54,0000 0000 0000 0000 000000
2018-02-22 11:15:44,0.18,4.78,0.00,22.78,26.47,29.72,14.25,51.27,1032.04,2026.75,1910.85,2101.18,2318.64,599.90,605.38,44.59,0000 0000 0000 0000 000000
2018-02-22 11:20:45,0.23,4.79,0.00,22.78,26.47,29.73,14.31,51.26,1032.04,2026.70,1908.26,2099.43,2316.60,600.34,605.89,44.64,0000 0000 0000 0000 000000
2018-02-22 11:25:47,0.25,4.81,0.00,22.77,26.45,29.72,14.26,51.30,1032.15,2026.44,1905.11,2097.48,2314.33,600.17,605.79,44.69,0000 0000 0000 0000 000000
2018-02-22 11:30:48,0.26,4.82,0.00,22.75,26.45,29.69,14.17,51.23,1032.23,2026.31,1901.78,2095.42,2312.07,599.96,605.64,44.75,0000 0000 0000 0000 000000
2018-02-22 11:35:49,0.28,4.83,0.00,22.73,26.44,29.69,14.24,51.23,1032.24,2026.28,1898.53,2093.48,2309.90,599.85,605.65,44.80,0000 0000 0000 0000 000000
2018-02-22 11:40:51,0.28,4.85,0.00,22.70,26.42,29.69,14.21,51.23,1032.24,2026.53,1895.55,2091.70,2307.90,599.87,605.70,44.85,0000 0000 0000 0000 000000
2018-02-22 11:45:52,0.28,4.86,0.00,22.69,26.41,29.67,14.13,51.16,1032.24,2026.55,1892.37,2089.72,2305.67,599.79,605.60,44.90,0000 0000 0000 0000 000000
2018-02-22 11:50:53,0.27,4.88,0.00,22.69,26.40,29.65,14.22,51.23,1032.24,2026.58,1889.30,2087.68,2303.40,599.94,605.83,44.95,0000 0000 0000 0000 000000
2018-02-22 11:55:55,0.30,4.89,0.00,22.68,26.39,29.66,14.26,51.33,1032.25,2026.67,1886.17,2085.70,2301.30,600.17,606.05,45.00,0000 0000 0000 0000 000000
2018-02-22 12:00:56,0.22,4.91,0.00,22.67,26.37,29.64,14.25,51.33,1032.26,2026.66,1883.36,2083.87,2299.29,599.92,605.80,45.05,0000 0000 0000 0000 000000
2018-02-22 12:05:57,0.25,4.92,0.00,22.66,26.36,29.63,14.21,51.42,1032.27,2026.77,1880.87,2082.31,2297.54,599.66,605.65,45.10,0000 0000 0000 0000 000000
2018-02-22 12:10:58,0.24,4.93,0.00,22.64,26.35,29.61,14.22,51.27,1032.30,2026.92,1878.30,2080.71,2295.77,599.86,605.85,45.15,0000 0000 0000 0000 000000
2018-02-22 12:16:00,0.20,4.94,0.00,22.63,26.34,29.57,14.29,51.29,1032.31,2026.96,1875.93,2079.20,2294.03,600.20,606.18,45.20,0000 0000 0000 0000 000000
2018-02-22 12:21:01,0.22,4.95,0.00,22.61,26.32,29.58,14.23,51.25,1032.40,2026.97,1873.54,2077.67,2292.29,599.95,606.03,45.25,0000 0000 0000 0000 000000
2018-02-22 12:26:03,0.21,4.96,0.00,22.60,26.31,29.57,14.19,51.21,1032.67,2026.99,1871.26,2076.14,2290.52,599.73,605.99,45.30,0000 0000 0000 0000 000000
2018-02-22 12:31:04,0.22,4.97,0.00,22.58,26.30,29.57,14.30,51.27,1032.72,2026.99,1868.76,2074.63,2288.83,600.24,606.39,45.35,0000 0000 0000 0000 000000
2018-02-22 12:36:05,0.21,4.99,0.00,22.57,26.29,29.55,14.29,51.32,1032.73,2026.99,1866.35,2073.07,2287.15,600.09,606.50,45.40,0000 0000 0000 0000 000000
2018-02-22 12:41:06,0.23,5.00,0.00,22.55,26.27,29.54,14.26,51.42,1032.73,2026.99,1863.79,2071.48,2285.31,600.34,606.75,45.45,0000 0000 0000 0000 000000
2018-02-22 12:46:08,0.18,5.01,0.00,22.54,26.27,29.50,14.27,51.32,1032.73,2026.99,1861.40,2070.12,2283.86,599.96,606.23,45.50,0000 0000 0000 0000 000000
2018-02-22 12:51:09,0.14,5.02,0.00,22.53,26.25,29.51,14.25,51.46,1032.73,2026.99,1859.71,2069.08,2282.76,600.26,606.62,45.55,0000 0000 0000 0000 000000
2018-02-22 12:56:10,0.19,5.02,0.00,22.52,26.25,29.51,14.22,51.34,1032.74,2026.99,1857.71,2067.79,2281.33,599.66,606.13,45.60,0000 0000 0000 0000 000000